Location: Tucson
(32.2217°N, 110.9265°W)
Time: 23:35:28
(UTC-07:00)

N. Korean satellite - Pass Details

Date: 02 April 2019
Orbit: 455 x 510 km, 97.2° (Epoch: 16 June)

Event Time Altitude Azimuth Distance (km) Brightness Sun altitude
Rises 05:41:32 0° 30° (NNE) 2,577 10.9 -7.0°
Reaches altitude 10° 05:44:03 10° 48° (NE) 1,700 10.3 -6.5°
Maximum altitude 05:46:45 20° 96° (E) 1,222 9.8 -5.9°
Drops below altitude 10° 05:49:29 10° 144° (SE) 1,709 9.7 -5.3°
Sets 05:52:00 0° 162° (SSE) 2,595 10.4 -4.8°
